Content
SEND FEEDBACK

Daily
Averages
Monthly
Summary
United States of America

MANGILAO, GUAM


Home > North America > United States > Guam
Elevation: 60 feet     Latitude: 13 27N     Longitude: 144 49E

WEATHER
 
SELECT A DAY
Number of Records: 341,964;   Date Range: 1/1/95 - 7/26/14
 
SHARE

PRINT THIS DATA

[ ← Previous Day ]
WEATHER ALMANAC - MAY 7, 2013
[ Next Day → ]
[ °C ]   °F
Weather ElementAverageHighLow
Temperature80.5 °F84.9 °F (1:55 pm)77 °F (12:52 am)
Dewpoint75.4 °F77 °F (7:59 am)74.7 °F (2:55 am)
Humidity84.9 %95 % (12:55 am)73 % (1:55 pm)
Barometer29.81 in29.85 in (12:52 am)29.75 in (3:55 pm)
Wind Speed8.1 mph12.7 mph (11:57 am)
Weather ElementAverage
Visibility9.9 mi
Wind DirectionE (92.8 °)

Weather ElementTotal
Precipitation0.01 in
Cooling Degree Days16 (Base 65)
Growing Degree Days31 (Base 50)
Averaged from 100 records on May 7, 2013
WEATHER CONDITIONS BREAKOUT
WIND DIRECTION BREAKOUT
WEATHER BY HOUR - MAY 7, 2013
[ °C ]   °F
Local TimeTemperatureDewpointHumidityBarometerVisibilityWind DirectionWind SpeedGust SpeedPrecipitationEventsConditions
12:52 AM77.0 °F75.2 °F94 %29.85 in10.0 miEast (80°)6.9 mphMostly Cloudy
12:54 AM77.0 °F75.2 °F94 %29.85 in10.0 miEast (90°)6.9 mphMostly Cloudy
12:55 AM77.5 °F76.1 °F95 %29.85 in10.0 miEast (90°)6.9 mphMostly Cloudy
1:55 AM78.1 °F75.4 °F91 %29.83 in10.0 miEast (100°)6.9 mphPartly Cloudy
2:21 AM78.8 °F75.2 °F89 %29.82 in10.0 miEast (100°)5.8 mphMostly Cloudy
2:25 AM78.8 °F75.2 °F89 %29.82 in10.0 miEast (100°)4.6 mphMostly Cloudy
2:34 AM78.8 °F75.2 °F89 %29.82 in10.0 miEast (100°)10.4 mphMostly Cloudy
2:37 AM78.8 °F75.2 °F89 %29.81 in10.0 miEast (100°)8.1 mphScattered Clouds
2:55 AM78.1 °F74.7 °F89 %29.81 in10.0 miEast (100°)8.1 mphPartly Cloudy
3:55 AM77.9 °F74.8 °F90 %29.80 in10.0 miESE (110°)5.8 mphPartly Cloudy
4:02 AM78.8 °F75.2 °F89 %29.80 in10.0 miESE (110°)6.9 mphMostly Cloudy
4:11 AM78.8 °F75.2 °F89 %29.81 in10.0 miESE (110°)5.8 mphMostly Cloudy
4:12 AM78.8 °F75.2 °F89 %29.81 in10.0 miESE (110°)5.8 mphMostly Cloudy
4:14 AM78.8 °F75.2 °F89 %29.81 in10.0 miEast (100°)5.8 mphMostly Cloudy
4:20 AM78.8 °F75.2 °F89 %29.81 in10.0 miEast (100°)6.9 mphMostly Cloudy
4:24 AM78.8 °F75.2 °F89 %29.81 in10.0 miEast (100°)6.9 mphMostly Cloudy
4:29 AM78.8 °F75.2 °F89 %29.81 in10.0 miEast (100°)5.8 mphMostly Cloudy
4:33 AM78.8 °F75.2 °F89 %29.81 in10.0 miEast (90°)6.9 mphMostly Cloudy
4:37 AM78.8 °F75.2 °F89 %29.81 in10.0 miEast (90°)8.1 mphMostly Cloudy
4:41 AM78.8 °F75.2 °F89 %29.81 in10.0 miEast (90°)6.9 mphScattered Clouds
4:54 AM78.8 °F75.2 °F89 %29.81 in10.0 miEast (90°)6.9 mphMostly Cloudy
4:55 AM78.3 °F75.0 °F90 %29.81 in10.0 miEast (90°)5.8 mphMostly Cloudy
4:56 AM78.8 °F75.2 °F89 %29.81 in10.0 miEast (90°)5.8 mphMostly Cloudy
4:59 AM78.8 °F75.2 °F89 %29.81 in10.0 miEast (80°)6.9 mphMostly Cloudy
5:04 AM78.8 °F75.2 °F89 %29.81 in10.0 miEast (90°)8.1 mphScattered Clouds
5:13 AM78.8 °F75.2 °F89 %29.81 in10.0 miEast (100°)5.8 mphMostly Cloudy
5:55 AM78.4 °F75.2 °F90 %29.82 in10.0 miESE (120°)6.9 mphOvercast
6:01 AM78.8 °F75.2 °F89 %29.82 in10.0 miESE (110°)5.8 mphMostly Cloudy
6:05 AM78.8 °F75.2 °F89 %29.82 in10.0 miESE (110°)5.8 mphMostly Cloudy
6:32 AM78.8 °F75.2 °F89 %29.83 in10.0 miENE (60°)5.8 mphMostly Cloudy
6:37 AM77.0 °F75.2 °F94 %29.83 in9.0 miENE (60°)9.2 mphRainLight Rain
6:41 AM77.0 °F75.2 °F94 %29.83 in5.0 miENE (60°)8.1 mphRainLight Rain
6:44 AM77.0 °F75.2 °F94 %29.83 in5.0 miENE (70°)6.9 mphRainLight Rain
6:53 AM78.8 °F75.2 °F89 %29.83 in10.0 miEast (90°)5.8 mphMostly Cloudy
6:55 AM78.1 °F75.0 °F90 %29.83 in10.0 miEast (90°)4.6 mph0.01 inMostly Cloudy
7:04 AM78.8 °F75.2 °F89 %29.83 in10.0 miENE (70°)5.8 mphMostly Cloudy
7:10 AM78.8 °F75.2 °F89 %29.83 in10.0 miEast (80°)4.6 mphScattered Clouds
7:35 AM80.6 °F75.2 °F84 %29.83 in10.0 miESE (110°)4.6 mphMostly Cloudy
7:39 AM80.6 °F75.2 °F84 %29.83 in10.0 miEast (90°)5.8 mphMostly Cloudy
7:49 AM78.8 °F75.2 °F89 %29.83 in10.0 miESE (110°)4.6 mphMostly Cloudy
7:50 AM78.8 °F75.2 °F89 %29.83 in10.0 miESE (120°)4.6 mphDrizzle
7:55 AM79.5 °F76.1 °F89 %29.84 in10.0 miESE (120°)4.6 mph0.00 inLight Drizzle
7:59 AM78.8 °F77.0 °F94 %29.84 in10.0 miSE (130°)3.5 mphMostly Cloudy
8:06 AM80.6 °F77.0 °F89 %29.84 in10.0 miEast (100°)4.6 mphMostly Cloudy
8:29 AM80.6 °F77.0 °F89 %29.84 in10.0 miESE (120°)8.1 mphMostly Cloudy
8:49 AM80.6 °F77.0 °F89 %29.84 in10.0 miEast (90°)8.1 mphMostly Cloudy
8:53 AM82.4 °F75.2 °F79 %29.84 in10.0 miEast (90°)10.4 mphMostly Cloudy
8:55 AM82.2 °F75.9 °F81 %29.84 in10.0 miEast (80°)11.5 mph0.00 inMostly Cloudy
8:58 AM82.4 °F75.2 °F79 %29.84 in10.0 miEast (90°)10.4 mphScattered Clouds
9:19 AM82.4 °F75.2 °F79 %29.83 in10.0 miEast (90°)8.1 mphMostly Cloudy
9:55 AM82.6 °F75.6 °F79 %29.83 in10.0 miEast (100°)10.4 mphMostly Cloudy
10:17 AM84.2 °F77.0 °F79 %29.83 in10.0 miEast (100°)11.5 mphScattered Clouds
10:55 AM84.2 °F75.6 °F75 %29.82 in10.0 miEast (100°)11.5 mphPartly Cloudy
11:55 AM84.4 °F76.5 °F77 %29.81 in10.0 miEast (90°)11.5 mphMostly Cloudy
11:57 AM84.2 °F77.0 °F79 %29.81 in10.0 miEast (80°)12.7 mphMostly Cloudy
11:59 AM84.2 °F77.0 °F79 %29.81 in10.0 miEast (80°)12.7 mphMostly Cloudy
12:43 PM84.2 °F77.0 °F79 %29.80 in10.0 miEast (100°)10.4 mphMostly Cloudy
12:55 PM83.8 °F76.1 °F77 %29.79 in10.0 miEast (80°)11.5 mphMostly Cloudy
1:37 PM84.2 °F75.2 °F74 %29.78 in10.0 miEast (90°)10.4 mphScattered Clouds
1:55 PM84.9 °F75.4 °F73 %29.77 in10.0 miEast (100°)11.5 mphPartly Cloudy
2:42 PM84.2 °F75.2 °F74 %29.76 in10.0 miEast (90°)10.4 mphMostly Cloudy
2:45 PM84.2 °F75.2 °F74 %29.76 in10.0 miESE (110°)8.1 mphScattered Clouds
2:55 PM84.6 °F75.7 °F75 %29.76 in10.0 miEast (90°)10.4 mphScattered Clouds
3:55 PM84.2 °F75.6 °F75 %29.75 in10.0 miESE (120°)8.1 mphPartly Cloudy
4:25 PM84.2 °F75.2 °F74 %29.75 in10.0 miEast (100°)6.9 mphMostly Cloudy
4:29 PM82.4 °F75.2 °F79 %29.75 in10.0 miEast (90°)8.1 mphScattered Clouds
4:42 PM84.2 °F75.2 °F74 %29.75 in10.0 miVariable6.9 mphMostly Cloudy
4:55 PM82.4 °F75.6 °F80 %29.75 in10.0 miEast (100°)6.9 mphMostly Cloudy
5:15 PM82.4 °F75.2 °F79 %29.75 in10.0 miEast (100°)6.9 mphScattered Clouds
5:16 PM82.4 °F75.2 °F79 %29.75 in10.0 miEast (90°)8.1 mphMostly Cloudy
5:23 PM82.4 °F75.2 °F79 %29.75 in10.0 miEast (80°)10.4 mphScattered Clouds
5:30 PM82.4 °F75.2 °F79 %29.76 in10.0 miEast (80°)8.1 mphMostly Cloudy
5:37 PM80.6 °F75.2 °F84 %29.76 in10.0 miENE (70°)9.2 mphScattered Clouds
5:55 PM81.1 °F75.9 °F84 %29.76 in10.0 miEast (80°)10.4 mphScattered Clouds
6:22 PM80.6 °F75.2 °F84 %29.77 in10.0 miENE (70°)10.4 mphMostly Cloudy
6:26 PM80.6 °F75.2 °F84 %29.77 in10.0 miENE (70°)9.2 mphMostly Cloudy
6:28 PM80.6 °F75.2 °F84 %29.77 in10.0 miEast (80°)10.4 mphMostly Cloudy
6:32 PM80.6 °F75.2 °F84 %29.78 in10.0 miEast (80°)10.4 mphMostly Cloudy
6:38 PM80.6 °F75.2 °F84 %29.78 in10.0 miEast (80°)8.1 mphMostly Cloudy
6:55 PM80.4 °F75.4 °F85 %29.78 in10.0 miEast (100°)8.1 mphScattered Clouds
7:55 PM80.2 °F74.8 °F84 %29.79 in10.0 miEast (90°)10.4 mphScattered Clouds
8:43 PM80.6 °F75.2 °F84 %29.81 in10.0 miEast (90°)9.2 mphMostly Cloudy
8:51 PM80.6 °F75.2 °F84 %29.81 in10.0 miEast (90°)8.1 mphMostly Cloudy
8:55 PM80.4 °F75.6 °F85 %29.81 in10.0 miEast (90°)8.1 mphMostly Cloudy
9:01 PM80.6 °F75.2 °F84 %29.82 in10.0 miEast (90°)11.5 mphOvercast
9:20 PM80.6 °F75.2 °F84 %29.82 in10.0 miEast (90°)11.5 mphScattered Clouds
9:22 PM80.6 °F75.2 °F84 %29.83 in10.0 miEast (100°)10.4 mphMostly Cloudy
9:36 PM80.6 °F75.2 °F84 %29.83 in10.0 miEast (90°)9.2 mphScattered Clouds
9:37 PM80.6 °F75.2 °F84 %29.83 in10.0 miEast (90°)10.4 mphMostly Cloudy
9:39 PM80.6 °F75.2 °F84 %29.83 in10.0 miEast (100°)10.4 mphScattered Clouds
9:43 PM80.6 °F75.2 °F84 %29.83 in10.0 miEast (90°)9.2 mphMostly Cloudy
9:55 PM80.2 °F75.2 °F85 %29.83 in10.0 miEast (90°)9.2 mphMostly Cloudy
9:57 PM80.6 °F75.2 °F84 %29.83 in10.0 miEast (100°)9.2 mphScattered Clouds
10:55 PM80.1 °F75.2 °F85 %29.83 in10.0 miEast (100°)10.4 mphScattered Clouds
11:44 PM80.6 °F75.2 °F84 %29.83 in10.0 miEast (100°)8.1 mphMostly Cloudy
11:46 PM80.6 °F75.2 °F84 %29.83 in10.0 miEast (100°)9.2 mphScattered Clouds
11:54 PM80.6 °F75.2 °F84 %29.83 in10.0 miEast (100°)6.9 mphMostly Cloudy
11:55 PM79.9 °F74.8 °F85 %29.83 in10.0 miEast (100°)6.9 mphMostly Cloudy
11:56 PM80.6 °F75.2 °F84 %29.83 in10.0 miEast (100°)8.1 mphScattered Clouds
11:59 PM80.6 °F75.2 °F84 %29.83 in10.0 miESE (110°)6.9 mphMostly Cloudy
Hourly data recorded from PGUA, located miles away from Mangilao, Guam







STORIES FROM OUR PARTNERS